Starlink 30548

operational
NORAD ID: 58046 Int'l Des: 2023-156 Owner: SPXS Country: US Constellation: starlink
LEOCIRCULAR

Starlink 30548について

説明を読み込み中...

リアルタイム位置

3D地球を読み込み中...

次回通過

高度履歴

Altitude vs Time

uPlot chart will show altitude changes over time

軌道要素

1 58046U 23156U 25259.25002315 -.00002692 00000-0 -78909-4 0 9999
2 58046 53.1585 258.4544 0001377 90.4987 321.7758 15.30155437 5764
Epoch: Sep 16, 2025 • Age: 5 hours

現在のステータス

高度 481.0 km
速度 7.63 km/s
衛星直下点 53.28°N, 173.69°W
打ち上げ日 Oct 9, 2023
運用期間 1.9 years
タイプ internet

技術仕様

分類 Payload
質量 730.00 kg
乾燥質量 700.00 kg
総質量 730.00 kg
長さ 0.30 m
直径 4.10 m
スパン 29.00 m
形状 Box + pan
製造者 SPXS
バスタイプ Starlink V2M
フェーズステータス In Orbit
所有者/国 SPXS/US

大規模コンステレーション

Loading constellations...